Location: Krakow
(50.0830°N, 19.9170°E)
Time: 18:50:51
(UTC+01:00)

SR - Pass Details

Date: 11 February 2023
Orbit: 582 x 867 km, 66.7° (Epoch: 20 March)

Event Time Altitude Azimuth Distance (km) Brightness Sun altitude
Rises 14:01:17 0° 251° (WSW) 3,122 ? 20.1°
Reaches altitude 10° 14:04:01 10° 263° (W) 2,152 ? 19.9°
Maximum altitude 14:08:10 27° 322° (NW) 1,260 ? 19.5°
Drops below altitude 10° 14:12:05 10° 21° (NNE) 2,019 ? 19.2°
Sets 14:14:34 0° 34° (NNE) 2,892 ? 18.9°
